• In Czech Republic
  • List of Countries
  • For 7 days
  • Water Temperature
  • Satellite Maps
  • Weather Map
  • Weather Widgets
  • user-avatar
    Login

    Hourly Weather Leicester

    Today, 22 October, Sunday

    Time Temperature Precipitation Wind Pressure Humidity
    00:00 +10°C° 0 mm 8 mps 745 mmHg 79%
    01:00 +9°C° 0 mm 8 mps 746 mmHg 78%
    02:00 +9°C° 0 mm 8 mps 746 mmHg 77%
    03:00 +9°C° 0 mm 8 mps 747 mmHg 76%
    04:00 +7°C° 0.1 mm 8 mps 747 mmHg 76%
    05:00 +7°C° 0.1 mm 8 mps 748 mmHg 75%
    06:00 +7°C° 0.1 mm 9 mps 749 mmHg 75%
    07:00 +7°C° 0 mm 9 mps 749 mmHg 73%
    08:00 +8°C° 0 mm 9 mps 750 mmHg 71%
    09:00 +8°C° 0 mm 9 mps 750 mmHg 69%
    10:00 +8°C° 0 mm 10 mps 751 mmHg 67%
    11:00 +9°C° 0 mm 10 mps 751 mmHg 65%
    12:00 +9°C° 0 mm 10 mps 752 mmHg 63%
    13:00 +10°C° 0 mm 9 mps 752 mmHg 64%
    14:00 +10°C° 0 mm 9 mps 752 mmHg 64%
    15:00 +11°C° 0 mm 8 mps 753 mmHg 65%
    16:00 +10°C° 0 mm 7 mps 753 mmHg 69%
    17:00 +9°C° 0 mm 6 mps 754 mmHg 73%
    18:00 +9°C° 0 mm 5 mps 754 mmHg 77%
    19:00 +9°C° 0 mm 5 mps 755 mmHg 79%
    20:00 +8°C° 0 mm 5 mps 755 mmHg 82%
    21:00 +8°C° 0 mm 5 mps 756 mmHg 84%
    22:00 +8°C° 0 mm 5 mps 756 mmHg 86%
    23:00 +8°C° 0 mm 4 mps 756 mmHg 87%

    Tomorrow, 23 October, Monday

    Time Temperature Precipitation Wind Pressure Humidity
    00:00 +8°C° 0 mm 4 mps 756 mmHg 88%
    01:00 +8°C° 0 mm 4 mps 756 mmHg 89%
    02:00 +8°C° 0 mm 4 mps 756 mmHg 90%
    03:00 +8°C° 0 mm 4 mps 756 mmHg 91%
    04:00 +10°C° 0.3 mm 4 mps 755 mmHg 92%
    05:00 +10°C° 0.3 mm 4 mps 755 mmHg 93%
    06:00 +11°C° 0.3 mm 4 mps 755 mmHg 93%
    07:00 +11°C° 0.2 mm 4 mps 755 mmHg 93%
    08:00 +12°C° 0.2 mm 5 mps 755 mmHg 93%
    09:00 +12°C° 0.2 mm 5 mps 754 mmHg 92%
    10:00 +13°C° 0 mm 5 mps 754 mmHg 90%
    11:00 +15°C° 0 mm 5 mps 754 mmHg 89%
    12:00 +16°C° 0 mm 5 mps 754 mmHg 87%
    13:00 +16°C° 0.1 mm 5 mps 754 mmHg 87%
    14:00 +16°C° 0.1 mm 5 mps 754 mmHg 86%
    15:00 +17°C° 0.1 mm 4 mps 754 mmHg 86%
    16:00 +15°C° 0.1 mm 4 mps 755 mmHg 88%
    17:00 +14°C° 0.1 mm 3 mps 755 mmHg 90%
    18:00 +14°C° 0.1 mm 2 mps 755 mmHg 92%
    19:00 +13°C° 0 mm 2 mps 756 mmHg 92%
    20:00 +13°C° 0 mm 2 mps 756 mmHg 92%
    21:00 +13°C° 0 mm 2 mps 756 mmHg 93%
    22:00 +12°C° 0 mm 3 mps 756 mmHg 94%
    23:00 +12°C° 0 mm 3 mps 756 mmHg 95%

    Day after tomorrow, 24 October, Tuesday

    Time Temperature Precipitation Wind Pressure Humidity
    00:00 +12°C° 0 mm 3 mps 756 mmHg 95%
    01:00 +12°C° 0.6 mm 4 mps 755 mmHg 96%
    02:00 +13°C° 0.6 mm 5 mps 755 mmHg 96%
    03:00 +14°C° 0.6 mm 5 mps 754 mmHg 96%
    04:00 +15°C° 0.3 mm 6 mps 754 mmHg 95%
    05:00 +15°C° 0.3 mm 6 mps 754 mmHg 93%
    06:00 +16°C° 0.3 mm 6 mps 754 mmHg 92%
    07:00 +16°C° 0 mm 7 mps 754 mmHg 91%
    08:00 +16°C° 0 mm 7 mps 754 mmHg 89%
    09:00 +16°C° 0 mm 8 mps 754 mmHg 88%
    10:00 +17°C° 0.2 mm 8 mps 754 mmHg 87%
    11:00 +17°C° 0.2 mm 8 mps 754 mmHg 86%
    12:00 +17°C° 0.2 mm 8 mps 754 mmHg 85%
    13:00 +17°C° 0 mm 8 mps 754 mmHg 85%
    14:00 +17°C° 0 mm 8 mps 754 mmHg 85%
    15:00 +17°C° 0 mm 7 mps 754 mmHg 84%
    16:00 +17°C° 0.1 mm 7 mps 754 mmHg 86%
    17:00 +16°C° 0.1 mm 7 mps 754 mmHg 87%
    18:00 +16°C° 0.1 mm 7 mps 754 mmHg 88%
    19:00 +16°C° 0.2 mm 7 mps 754 mmHg 88%
    20:00 +16°C° 0.2 mm 7 mps 754 mmHg 88%
    21:00 +16°C° 0.2 mm 7 mps 754 mmHg 88%
    22:00 +15°C° 0.1 mm 8 mps 754 mmHg 88%
    23:00 +15°C° 0.1 mm 8 mps 754 mmHg 88%

    25 October, Wednesday

    Time Temperature Precipitation Wind Pressure Humidity
    00:00 +15°C° 0.1 mm 8 mps 754 mmHg 88%
    01:00 +15°C° 0.1 mm 8 mps 754 mmHg 88%
    02:00 +15°C° 0.1 mm 7 mps 755 mmHg 88%
    03:00 +15°C° 0.1 mm 7 mps 755 mmHg 87%
    04:00 +15°C° 0 mm 6 mps 755 mmHg 88%
    05:00 +14°C° 0 mm 5 mps 755 mmHg 88%
    06:00 +14°C° 0 mm 4 mps 756 mmHg 88%
    07:00 +14°C° 0 mm 5 mps 756 mmHg 86%
    08:00 +14°C° 0 mm 5 mps 757 mmHg 84%
    09:00 +14°C° 0 mm 5 mps 757 mmHg 82%
    10:00 +15°C° 0 mm 5 mps 758 mmHg 78%
    11:00 +16°C° 0 mm 5 mps 758 mmHg 74%
    12:00 +16°C° 0 mm 5 mps 758 mmHg 70%
    13:00 +17°C° 0 mm 4 mps 759 mmHg 72%
    14:00 +17°C° 0 mm 4 mps 759 mmHg 75%
    15:00 +16°C° 0 mm 3 mps 759 mmHg 78%
    16:00 +16°C° 0 mm 3 mps 759 mmHg 81%
    17:00 +14°C° 0 mm 3 mps 759 mmHg 83%
    18:00 +15°C° 0 mm 2 mps 759 mmHg 86%
    19:00 +15°C° 0 mm 2 mps 760 mmHg 88%
    20:00 +14°C° 0 mm 2 mps 760 mmHg 90%
    21:00 +14°C° 0 mm 2 mps 760 mmHg 92%
    22:00 +14°C° 0 mm 2 mps 760 mmHg 92%
    23:00 +14°C° 0 mm 2 mps 760 mmHg 93%

    26 October, Thursday

    Time Temperature Precipitation Wind Pressure Humidity
    00:00 +15°C° 0 mm 2 mps 760 mmHg 94%
    01:00 +15°C° 0.1 mm 2 mps 760 mmHg 94%
    02:00 +15°C° 0.1 mm 2 mps 760 mmHg 95%
    03:00 +15°C° 0.1 mm 2 mps 760 mmHg 95%
    04:00 +13°C° 0 mm 3 mps 760 mmHg 95%
    05:00 +13°C° 0 mm 3 mps 760 mmHg 95%
    06:00 +13°C° 0 mm 3 mps 760 mmHg 96%
    07:00 +13°C° 0 mm 3 mps 760 mmHg 93%
    08:00 +13°C° 0 mm 3 mps 761 mmHg 89%
    09:00 +14°C° 0 mm 4 mps 761 mmHg 86%
    10:00 +14°C° 0 mm 4 mps 761 mmHg 83%
    11:00 +15°C° 0 mm 4 mps 761 mmHg 80%
    12:00 +15°C° 0 mm 4 mps 761 mmHg 76%
    13:00 +15°C° 0 mm 4 mps 760 mmHg 76%
    14:00 +16°C° 0 mm 3 mps 760 mmHg 76%
    15:00 +16°C° 0 mm 3 mps 760 mmHg 76%
    16:00 +14°C° 0 mm 3 mps 760 mmHg 80%
    17:00 +14°C° 0 mm 2 mps 760 mmHg 84%
    18:00 +13°C° 0 mm 2 mps 760 mmHg 88%
    19:00 +13°C° 0 mm 2 mps 760 mmHg 89%
    20:00 +13°C° 0 mm 2 mps 760 mmHg 90%
    21:00 +13°C° 0 mm 2 mps 760 mmHg 91%
    22:00 +13°C° 0 mm 2 mps 760 mmHg 92%
    23:00 +12°C° 0 mm 2 mps 760 mmHg 93%

    27 October, Friday

    Time Temperature Precipitation Wind Pressure Humidity
    00:00 +12°C° 0 mm 2 mps 760 mmHg 93%
    01:00 +12°C° 0 mm 2 mps 760 mmHg 94%
    02:00 +12°C° 0 mm 2 mps 760 mmHg 94%
    03:00 +10°C° 0 mm 2 mps 760 mmHg 94%
    04:00 +10°C° 0 mm 2 mps 760 mmHg 94%
    05:00 +10°C° 0 mm 2 mps 760 mmHg 94%
    06:00 +10°C° 0 mm 2 mps 761 mmHg 95%
    07:00 +11°C° 0 mm 3 mps 761 mmHg 93%
    08:00 +12°C° 0 mm 3 mps 762 mmHg 91%
    09:00 +12°C° 0 mm 3 mps 762 mmHg 89%
    10:00 +13°C° 0 mm 3 mps 762 mmHg 87%
    11:00 +13°C° 0 mm 3 mps 762 mmHg 84%
    12:00 +14°C° 0 mm 3 mps 763 mmHg 82%
    13:00 +14°C° 0 mm 4 mps 762 mmHg 81%
    14:00 +14°C° 0 mm 4 mps 762 mmHg 79%
    15:00 +14°C° 0 mm 4 mps 762 mmHg 78%
    16:00 +14°C° 0 mm 4 mps 762 mmHg 82%
    17:00 +13°C° 0 mm 3 mps 762 mmHg 85%
    18:00 +12°C° 0 mm 3 mps 762 mmHg 89%
    19:00 +12°C° 0 mm 3 mps 762 mmHg 90%
    20:00 +11°C° 0 mm 3 mps 762 mmHg 92%
    21:00 +11°C° 0 mm 3 mps 762 mmHg 93%
    22:00 +11°C° 0 mm 3 mps 762 mmHg 93%
    23:00 +11°C° 0 mm 3 mps 762 mmHg 93%
    Show more